Saint Bonnet de Bellac- Haute Vienne - France
Donnes mto: vendredi, 11/11/2011
Date Horaire Temp. E. Hum. E. P.atmo. Pluie Vent Direction Direction Ensoleilleme Solaire P. de rose Temp au vent Rafales
11/11/2011 00:00 9,3 C 94 % 1014,3 hPa 0,0 mm 2,2 km/h (1 Bft) E-SE 112 0 min 0 W/m 8,4 C 9,3 C 4,3 km/h (1 Bft)
11/11/2011 00:05 9,2 C 94 % 1014,3 hPa 0,0 mm 3,6 km/h (1 Bft) E-SE 112 0 min 0 W/m 8,3 C 9,2 C 7,9 km/h (2 Bft)
11/11/2011 00:10 9,2 C 94 % 1014,2 hPa 0,0 mm 2,9 km/h (1 Bft) E-SE 112 0 min 0 W/m 8,3 C 9,2 C 4,3 km/h (1 Bft)
11/11/2011 00:15 9,2 C 94 % 1014,2 hPa 0,0 mm 2,2 km/h (1 Bft) E-SE 112 0 min 0 W/m 8,3 C 9,2 C 2,9 km/h (1 Bft)
11/11/2011 00:20 9,2 C 94 % 1014,1 hPa 0,0 mm 0,4 km/h (0 Bft) E-SE 112 0 min 0 W/m 8,3 C 9,2 C 0,4 km/h (0 Bft)
11/11/2011 00:25 9,2 C 94 % 1014,2 hPa 0,0 mm 0,0 km/h (0 Bft) E-SE 112 0 min 0 W/m 8,3 C 9,2 C 0,0 km/h (0 Bft)
11/11/2011 00:30 9,1 C 94 % 1014,2 hPa 0,0 mm 0,0 km/h (0 Bft) E-SE 112 0 min 0 W/m 8,2 C 9,1 C 0,0 km/h (0 Bft)
11/11/2011 00:35 9,1 C 94 % 1014,2 hPa 0,0 mm 1,1 km/h (1 Bft) E-SE 112 0 min 0 W/m 8,2 C 9,1 C 2,9 km/h (1 Bft)
11/11/2011 00:40 9,1 C 94 % 1014,2 hPa 0,0 mm 0,0 km/h (0 Bft) E-SE 112 0 min 0 W/m 8,2 C 9,1 C 0,0 km/h (0 Bft)
11/11/2011 00:45 9,1 C 94 % 1014,1 hPa 0,0 mm 0,0 km/h (0 Bft) E-SE 112 0 min 0 W/m 8,2 C 9,1 C 0,0 km/h (0 Bft)
11/11/2011 00:50 9,1 C 94 % 1014,1 hPa 0,0 mm 2,2 km/h (1 Bft) SE 135 0 min 0 W/m 8,2 C 9,1 C 3,6 km/h (1 Bft)
11/11/2011 00:55 9,2 C 94 % 1014,0 hPa 0,0 mm 0,4 km/h (0 Bft) SE 135 0 min 0 W/m 8,3 C 9,2 C 3,2 km/h (1 Bft)
11/11/2011 01:00 9,2 C 94 % 1014,0 hPa 0,0 mm 0,0 km/h (0 Bft) SE 135 0 min 0 W/m 8,3 C 9,2 C 0,0 km/h (0 Bft)
11/11/2011 01:05 9,1 C 94 % 1014,0 hPa 0,0 mm 0,0 km/h (0 Bft) E-SE 112 0 min 0 W/m 8,2 C 9,1 C 0,0 km/h (0 Bft)
11/11/2011 01:10 9,1 C 94 % 1014,0 hPa 0,0 mm 0,0 km/h (0 Bft) E-SE 112 0 min 0 W/m 8,2 C 9,1 C 0,0 km/h (0 Bft)
11/11/2011 01:15 9,1 C 94 % 1014,0 hPa 0,0 mm 1,8 km/h (1 Bft) E-SE 112 0 min 0 W/m 8,2 C 9,1 C 4,0 km/h (1 Bft)
11/11/2011 01:20 9,1 C 94 % 1014,0 hPa 0,0 mm 0,7 km/h (0 Bft) E-SE 112 0 min 0 W/m 8,2 C 9,1 C 2,9 km/h (1 Bft)
11/11/2011 01:25 9,2 C 94 % 1014,0 hPa 0,0 mm 3,2 km/h (1 Bft) E-SE 112 0 min 0 W/m 8,3 C 9,2 C 4,0 km/h (1 Bft)
11/11/2011 01:30 9,3 C 94 % 1014,0 hPa 0,0 mm 0,4 km/h (0 Bft) E-SE 112 0 min 0 W/m 8,4 C 9,3 C 4,0 km/h (1 Bft)
11/11/2011 01:35 9,3 C 94 % 1014,0 hPa 0,0 mm 1,1 km/h (1 Bft) E-SE 112 0 min 0 W/m 8,4 C 9,3 C 3,6 km/h (1 Bft)
11/11/2011 01:40 9,3 C 94 % 1014,0 hPa 0,0 mm 0,0 km/h (0 Bft) E-SE 112 0 min 0 W/m 8,4 C 9,3 C 0,0 km/h (0 Bft)
11/11/2011 01:45 9,2 C 94 % 1013,9 hPa 0,0 mm 0,0 km/h (0 Bft) E-SE 112 0 min 0 W/m 8,3 C 9,2 C 0,0 km/h (0 Bft)
11/11/2011 01:50 9,2 C 95 % 1013,9 hPa 0,0 mm 0,0 km/h (0 Bft) E-SE 112 0 min 0 W/m 8,4 C 9,2 C 0,0 km/h (0 Bft)
11/11/2011 01:55 9,1 C 94 % 1013,9 hPa 0,0 mm 0,0 km/h (0 Bft) E-SE 112 0 min 0 W/m 8,2 C 9,1 C 0,0 km/h (0 Bft)
11/11/2011 02:02 9,1 C 94 % 1013,9 hPa 0,0 mm 0,4 km/h (0 Bft) E-SE 112 0 min 0 W/m 8,2 C 9,1 C 0,4 km/h (0 Bft)
11/11/2011 02:05 9,1 C 95 % 1013,9 hPa 0,0 mm 0,0 km/h (0 Bft) E-SE 112 0 min 0 W/m 8,3 C 9,1 C 3,6 km/h (1 Bft)
11/11/2011 02:10 9,1 C 94 % 1014,0 hPa 0,0 mm 1,1 km/h (1 Bft) E-SE 112 0 min 0 W/m 8,2 C 9,1 C 6,5 km/h (2 Bft)
11/11/2011 02:15 9,1 C 95 % 1013,9 hPa 0,0 mm 2,9 km/h (1 Bft) E-NE 67 0 min 0 W/m 8,3 C 9,1 C 2,9 km/h (1 Bft)
11/11/2011 02:20 9,1 C 94 % 1013,9 hPa 0,0 mm 3,2 km/h (1 Bft) E-SE 112 0 min 0 W/m 8,2 C 9,1 C 6,8 km/h (2 Bft)
11/11/2011 02:25 9,1 C 94 % 1013,9 hPa 0,0 mm 2,2 km/h (1 Bft) E-SE 112 0 min 0 W/m 8,2 C 9,1 C 6,5 km/h (2 Bft)
11/11/2011 02:30 9,2 C 95 % 1013,9 hPa 0,0 mm 1,8 km/h (1 Bft) E-SE 112 0 min 0 W/m 8,4 C 9,2 C 4,0 km/h (1 Bft)
11/11/2011 02:35 9,2 C 94 % 1013,7 hPa 0,0 mm 1,1 km/h (1 Bft) E 90 0 min 0 W/m 8,3 C 9,2 C 1,1 km/h (1 Bft)
11/11/2011 02:40 9,2 C 94 % 1013,7 hPa 0,0 mm 3,2 km/h (1 Bft) E 90 0 min 0 W/m 8,3 C 9,2 C 4,3 km/h (1 Bft)
11/11/2011 02:45 9,2 C 95 % 1013,8 hPa 0,0 mm 4,7 km/h (1 Bft) E-SE 112 0 min 0 W/m 8,4 C 8,9 C 7,6 km/h (2 Bft)
11/11/2011 02:50 9,2 C 95 % 1013,8 hPa 0,0 mm 0,4 km/h (0 Bft) E-SE 112 0 min 0 W/m 8,4 C 9,2 C 3,6 km/h (1 Bft)
11/11/2011 02:55 9,2 C 95 % 1013,8 hPa 0,0 mm 0,4 km/h (0 Bft) SE 135 0 min 0 W/m 8,4 C 9,2 C 0,4 km/h (0 Bft)
11/11/2011 03:00 9,2 C 95 % 1013,8 hPa 0,0 mm 2,5 km/h (1 Bft) E 90 0 min 0 W/m 8,4 C 9,2 C 4,0 km/h (1 Bft)
11/11/2011 03:05 9,2 C 95 % 1013,8 hPa 0,0 mm 2,9 km/h (1 Bft) E-SE 112 0 min 0 W/m 8,4 C 9,2 C 6,1 km/h (2 Bft)
11/11/2011 03:10 9,2 C 95 % 1013,8 hPa 0,0 mm 4,7 km/h (1 Bft) E-SE 112 0 min 0 W/m 8,4 C 8,9 C 4,7 km/h (1 Bft)
11/11/2011 03:15 9,2 C 95 % 1013,9 hPa 0,0 mm 2,2 km/h (1 Bft) E-SE 112 0 min 0 W/m 8,4 C 9,2 C 6,5 km/h (2 Bft)
11/11/2011 03:20 9,2 C 95 % 1013,8 hPa 0,0 mm 2,5 km/h (1 Bft) E-NE 67 0 min 0 W/m 8,4 C 9,2 C 6,5 km/h (2 Bft)
11/11/2011 03:25 9,2 C 95 % 1013,8 hPa 0,0 mm 2,9 km/h (1 Bft) E-SE 112 0 min 0 W/m 8,4 C 9,2 C 6,5 km/h (2 Bft)
11/11/2011 03:30 9,1 C 95 % 1013,8 hPa 0,0 mm 0,4 km/h (0 Bft) E-SE 112 0 min 0 W/m 8,3 C 9,1 C 4,0 km/h (1 Bft)
11/11/2011 03:35 9,1 C 95 % 1013,8 hPa 0,0 mm 1,1 km/h (1 Bft) E-SE 112 0 min 0 W/m 8,3 C 9,1 C 4,0 km/h (1 Bft)
11/11/2011 03:40 9,1 C 95 % 1013,8 hPa 0,0 mm 2,9 km/h (1 Bft) E-SE 112 0 min 0 W/m 8,3 C 9,1 C 6,1 km/h (2 Bft)
11/11/2011 03:45 9,2 C 95 % 1013,7 hPa 0,0 mm 2,9 km/h (1 Bft) E-SE 112 0 min 0 W/m 8,4 C 9,2 C 6,1 km/h (2 Bft)
11/11/2011 03:50 9,1 C 95 % 1013,7 hPa 0,0 mm 4,0 km/h (1 Bft) SE 135 0 min 0 W/m 8,3 C 9,1 C 7,6 km/h (2 Bft)
11/11/2011 03:55 9,1 C 95 % 1013,7 hPa 0,0 mm 1,1 km/h (1 Bft) E-SE 112 0 min 0 W/m 8,3 C 9,1 C 1,1 km/h (1 Bft)
11/11/2011 04:00 9,1 C 95 % 1013,6 hPa 0,0 mm 2,9 km/h (1 Bft) E-SE 112 0 min 0 W/m 8,3 C 9,1 C 6,5 km/h (2 Bft)
11/11/2011 04:05 9,1 C 95 % 1013,6 hPa 0,0 mm 4,7 km/h (1 Bft) E-SE 112 0 min 0 W/m 8,3 C 8,8 C 10,1 km/h (2 Bft)
11/11/2011 04:10 9,1 C 95 % 1013,6 hPa 0,0 mm 4,3 km/h (1 Bft) E-SE 112 0 min 0 W/m 8,3 C 9,1 C 10,8 km/h (2 Bft)
11/11/2011 04:15 9,1 C 95 % 1013,5 hPa 0,0 mm 2,2 km/h (1 Bft) E 90 0 min 0 W/m 8,3 C 9,1 C 4,7 km/h (1 Bft)
11/11/2011 04:20 9,1 C 95 % 1013,5 hPa 0,0 mm 1,8 km/h (1 Bft) E-SE 112 0 min 0 W/m 8,3 C 9,1 C 4,3 km/h (1 Bft)
11/11/2011 04:25 9,1 C 95 % 1013,4 hPa 0,0 mm 1,4 km/h (1 Bft) E 90 0 min 0 W/m 8,3 C 9,1 C 1,4 km/h (1 Bft)
11/11/2011 04:30 9,1 C 95 % 1013,4 hPa 0,0 mm 0,0 km/h (0 Bft) E 90 0 min 0 W/m 8,3 C 9,1 C 0,0 km/h (0 Bft)
11/11/2011 04:35 8,9 C 95 % 1013,2 hPa 0,0 mm 1,1 km/h (1 Bft) E-SE 112 0 min 0 W/m 8,1 C 8,9 C 1,1 km/h (1 Bft)
11/11/2011 04:40 8,9 C 95 % 1013,3 hPa 0,0 mm 2,2 km/h (1 Bft) E-SE 112 0 min 0 W/m 8,1 C 8,9 C 4,3 km/h (1 Bft)
11/11/2011 04:45 9,0 C 95 % 1013,3 hPa 0,0 mm 0,0 km/h (0 Bft) SE 135 0 min 0 W/m 8,2 C 9,0 C 3,2 km/h (1 Bft)
11/11/2011 04:50 9,1 C 95 % 1013,2 hPa 0,0 mm 0,0 km/h (0 Bft) E-SE 112 0 min 0 W/m 8,3 C 9,1 C 0,0 km/h (0 Bft)
11/11/2011 04:55 9,1 C 95 % 1013,2 hPa 0,0 mm 0,0 km/h (0 Bft) E-SE 112 0 min 0 W/m 8,3 C 9,1 C 0,0 km/h (0 Bft)
11/11/2011 05:00 9,1 C 95 % 1013,2 hPa 0,0 mm 3,2 km/h (1 Bft) E 90 0 min 0 W/m 8,3 C 9,1 C 3,2 km/h (1 Bft)
11/11/2011 05:05 9,1 C 95 % 1013,3 hPa 0,0 mm 0,4 km/h (0 Bft) E-SE 112 0 min 0 W/m 8,3 C 9,1 C 4,3 km/h (1 Bft)
11/11/2011 05:10 9,1 C 95 % 1013,2 hPa 0,0 mm 2,5 km/h (1 Bft) E-SE 112 0 min 0 W/m 8,3 C 9,1 C 4,3 km/h (1 Bft)
11/11/2011 05:15 9,1 C 95 % 1013,2 hPa 0,0 mm 1,1 km/h (1 Bft) E-SE 112 0 min 0 W/m 8,3 C 9,1 C 6,1 km/h (2 Bft)
11/11/2011 05:20 9,1 C 95 % 1013,2 hPa 0,0 mm 1,8 km/h (1 Bft) E 90 0 min 0 W/m 8,3 C 9,1 C 3,6 km/h (1 Bft)
11/11/2011 05:25 9,1 C 95 % 1013,3 hPa 0,0 mm 2,2 km/h (1 Bft) E-SE 112 0 min 0 W/m 8,3 C 9,1 C 4,3 km/h (1 Bft)
11/11/2011 05:30 9,1 C 95 % 1013,3 hPa 0,0 mm 3,2 km/h (1 Bft) E-SE 112 0 min 0 W/m 8,3 C 9,1 C 3,6 km/h (1 Bft)
11/11/2011 05:35 9,2 C 95 % 1013,3 hPa 0,0 mm 2,9 km/h (1 Bft) E-SE 112 0 min 0 W/m 8,4 C 9,2 C 2,9 km/h (1 Bft)
11/11/2011 05:40 9,2 C 95 % 1013,3 hPa 0,0 mm 1,8 km/h (1 Bft) E-SE 112 0 min 0 W/m 8,4 C 9,2 C 3,6 km/h (1 Bft)
11/11/2011 05:45 9,2 C 95 % 1013,4 hPa 0,0 mm 0,4 km/h (0 Bft) SE 135 0 min 0 W/m 8,4 C 9,2 C 3,6 km/h (1 Bft)
11/11/2011 05:50 9,3 C 95 % 1013,2 hPa 0,0 mm 0,0 km/h (0 Bft) E 90 0 min 0 W/m 8,5 C 9,3 C 0,0 km/h (0 Bft)
11/11/2011 05:55 9,3 C 95 % 1013,3 hPa 0,0 mm 2,5 km/h (1 Bft) E-SE 112 0 min 0 W/m 8,5 C 9,3 C 3,2 km/h (1 Bft)
11/11/2011 06:00 9,3 C 95 % 1013,2 hPa 0,0 mm 0,0 km/h (0 Bft) E-SE 112 0 min 0 W/m 8,5 C 9,3 C 2,9 km/h (1 Bft)
11/11/2011 06:05 9,3 C 95 % 1013,3 hPa 0,0 mm 1,1 km/h (1 Bft) E-NE 67 0 min 0 W/m 8,5 C 9,3 C 4,0 km/h (1 Bft)
11/11/2011 06:10 9,4 C 95 % 1013,3 hPa 0,0 mm 1,1 km/h (1 Bft) SE 135 0 min 0 W/m 8,6 C 9,4 C 1,1 km/h (1 Bft)
11/11/2011 06:15 9,4 C 95 % 1013,3 hPa 0,0 mm 2,5 km/h (1 Bft) SE 135 0 min 0 W/m 8,6 C 9,4 C 4,3 km/h (1 Bft)
11/11/2011 06:20 9,6 C 95 % 1013,3 hPa 0,0 mm 1,4 km/h (1 Bft) SE 135 0 min 0 W/m 8,8 C 9,6 C 4,0 km/h (1 Bft)
11/11/2011 06:25 9,7 C 95 % 1013,3 hPa 0,0 mm 1,8 km/h (1 Bft) SE 135 0 min 0 W/m 8,9 C 9,7 C 3,2 km/h (1 Bft)
11/11/2011 06:30 9,7 C 95 % 1013,3 hPa 0,0 mm 0,7 km/h (0 Bft) E-SE 112 0 min 0 W/m 8,9 C 9,7 C 4,3 km/h (1 Bft)
11/11/2011 06:35 9,7 C 95 % 1013,4 hPa 0,0 mm 0,4 km/h (0 Bft) E-SE 112 0 min 0 W/m 8,9 C 9,7 C 0,4 km/h (0 Bft)
11/11/2011 06:40 9,6 C 95 % 1013,3 hPa 0,0 mm 0,7 km/h (0 Bft) E-SE 112 0 min 0 W/m 8,8 C 9,6 C 0,7 km/h (0 Bft)
11/11/2011 06:45 9,6 C 95 % 1013,3 hPa 0,0 mm 1,1 km/h (1 Bft) E-SE 112 0 min 0 W/m 8,8 C 9,6 C 4,0 km/h (1 Bft)
11/11/2011 06:50 9,5 C 95 % 1013,3 hPa 0,0 mm 0,7 km/h (0 Bft) E-SE 112 0 min 0 W/m 8,7 C 9,5 C 4,0 km/h (1 Bft)
11/11/2011 06:55 9,5 C 95 % 1013,3 hPa 0,0 mm 0,0 km/h (0 Bft) E-SE 112 0 min 0 W/m 8,7 C 9,5 C 0,0 km/h (0 Bft)
11/11/2011 07:00 9,4 C 95 % 1013,4 hPa 0,0 mm 0,0 km/h (0 Bft) E-SE 112 0 min 0 W/m 8,6 C 9,4 C 0,0 km/h (0 Bft)
11/11/2011 07:05 9,4 C 95 % 1013,4 hPa 0,0 mm 1,4 km/h (1 Bft) E-SE 112 0 min 0 W/m 8,6 C 9,4 C 3,6 km/h (1 Bft)
11/11/2011 07:10 9,3 C 95 % 1013,4 hPa 0,0 mm 0,0 km/h (0 Bft) E-SE 112 0 min 0 W/m 8,5 C 9,3 C 0,0 km/h (0 Bft)
11/11/2011 07:15 9,3 C 95 % 1013,4 hPa 0,0 mm 1,4 km/h (1 Bft) E-SE 112 0 min 0 W/m 8,5 C 9,3 C 4,3 km/h (1 Bft)
11/11/2011 07:20 9,3 C 95 % 1013,5 hPa 0,0 mm 0,0 km/h (0 Bft) E-SE 112 0 min 0 W/m 8,5 C 9,3 C 0,0 km/h (0 Bft)
11/11/2011 07:25 9,2 C 95 % 1013,6 hPa 0,0 mm 0,0 km/h (0 Bft) E-SE 112 0 min 0 W/m 8,4 C 9,2 C 0,0 km/h (0 Bft)
11/11/2011 07:30 9,1 C 95 % 1013,5 hPa 0,0 mm 1,4 km/h (1 Bft) E-SE 112 0 min 0 W/m 8,3 C 9,1 C 4,0 km/h (1 Bft)
11/11/2011 07:35 9,1 C 95 % 1013,4 hPa 0,0 mm 2,2 km/h (1 Bft) E-SE 112 0 min 0 W/m 8,3 C 9,1 C 4,3 km/h (1 Bft)
11/11/2011 07:40 9,2 C 95 % 1013,5 hPa 0,0 mm 0,0 km/h (0 Bft) E-SE 112 0 min 0 W/m 8,4 C 9,2 C 0,0 km/h (0 Bft)
11/11/2011 07:45 9,3 C 95 % 1013,6 hPa 0,1 mm 1,1 km/h (1 Bft) E-SE 112 0 min 0 W/m 8,5 C 9,3 C 4,0 km/h (1 Bft)
11/11/2011 07:50 9,4 C 95 % 1013,8 hPa 0,0 mm 0,0 km/h (0 Bft) E-SE 112 0 min 0 W/m 8,6 C 9,4 C 0,0 km/h (0 Bft)
11/11/2011 07:55 9,5 C 95 % 1013,8 hPa 0,0 mm 0,4 km/h (0 Bft) E-SE 112 0 min 0 W/m 8,7 C 9,5 C 0,4 km/h (0 Bft)
11/11/2011 08:00 9,5 C 95 % 1013,8 hPa 0,0 mm 1,8 km/h (1 Bft) SE 135 0 min 0 W/m 8,7 C 9,5 C 4,3 km/h (1 Bft)
11/11/2011 08:05 9,6 C 95 % 1013,8 hPa 0,0 mm 2,5 km/h (1 Bft) E-SE 112 0 min 0 W/m 8,8 C 9,6 C 4,3 km/h (1 Bft)
11/11/2011 08:10 9,6 C 95 % 1013,8 hPa 0,0 mm 2,2 km/h (1 Bft) SE 135 0 min 0 W/m 8,8 C 9,6 C 4,3 km/h (1 Bft)
11/11/2011 08:15 9,8 C 95 % 1013,9 hPa 0,0 mm 1,8 km/h (1 Bft) SE 135 0 min 0 W/m 9,0 C 9,8 C 4,3 km/h (1 Bft)
11/11/2011 08:20 9,9 C 95 % 1013,9 hPa 0,0 mm 3,2 km/h (1 Bft) SE 135 0 min 0 W/m 9,1 C 9,9 C 7,6 km/h (2 Bft)
11/11/2011 08:25 10,0 C 95 % 1014,0 hPa 0,0 mm 3,6 km/h (1 Bft) E-SE 112 0 min 0 W/m 9,2 C 10,0 C 3,6 km/h (1 Bft)
11/11/2011 08:30 10,1 C 95 % 1014,0 hPa 0,0 mm 2,9 km/h (1 Bft) SE 135 0 min 0 W/m 9,3 C 10,1 C 2,9 km/h (1 Bft)
11/11/2011 08:35 10,2 C 95 % 1014,0 hPa 0,0 mm 2,9 km/h (1 Bft) SE 135 0 min 0 W/m 9,4 C 10,2 C 4,3 km/h (1 Bft)
11/11/2011 08:40 10,5 C 96 % 1014,1 hPa 0,0 mm 1,8 km/h (1 Bft) E-SE 112 0 min 0 W/m 9,9 C 10,5 C 6,8 km/h (2 Bft)
11/11/2011 08:45 10,8 C 96 % 1014,1 hPa 0,0 mm 2,5 km/h (1 Bft) SE 135 0 min 0 W/m 10,2 C 10,8 C 4,0 km/h (1 Bft)
11/11/2011 08:50 11,1 C 95 % 1014,1 hPa 0,0 mm 3,2 km/h (1 Bft) E-SE 112 0 min 0 W/m 10,3 C 11,1 C 9,7 km/h (2 Bft)
11/11/2011 08:55 11,4 C 95 % 1014,2 hPa 0,0 mm 3,6 km/h (1 Bft) SE 135 0 min 0 W/m 10,6 C 11,4 C 4,0 km/h (1 Bft)
11/11/2011 09:00 11,8 C 94 % 1014,1 hPa 0,0 mm 0,0 km/h (0 Bft) SE 135 0 min 0 W/m 10,9 C 11,8 C 0,0 km/h (0 Bft)
11/11/2011 09:05 12,1 C 94 % 1014,2 hPa 0,0 mm 3,2 km/h (1 Bft) SE 135 0 min 0 W/m 11,2 C 12,1 C 4,3 km/h (1 Bft)
11/11/2011 09:10 12,4 C 93 % 1014,3 hPa 0,0 mm 3,2 km/h (1 Bft) E-SE 112 0 min 0 W/m 11,3 C 12,4 C 4,3 km/h (1 Bft)
11/11/2011 09:15 12,6 C 92 % 1014,2 hPa 0,0 mm 5,4 km/h (2 Bft) E 90 0 min 0 W/m 11,3 C 12,6 C 9,0 km/h (2 Bft)
11/11/2011 09:20 12,8 C 91 % 1014,3 hPa 0,0 mm 1,4 km/h (1 Bft) SE 135 0 min 0 W/m 11,4 C 12,8 C 4,3 km/h (1 Bft)
11/11/2011 09:25 13,1 C 90 % 1014,3 hPa 0,0 mm 2,5 km/h (1 Bft) E-SE 112 0 min 0 W/m 11,5 C 13,1 C 8,3 km/h (2 Bft)
11/11/2011 09:30 13,4 C 90 % 1014,3 hPa 0,0 mm 1,8 km/h (1 Bft) SE 135 0 min 0 W/m 11,8 C 13,4 C 4,0 km/h (1 Bft)
11/11/2011 09:35 13,8 C 89 % 1014,4 hPa 0,0 mm 0,7 km/h (0 Bft) SE 135 0 min 0 W/m 12,0 C 13,8 C 0,7 km/h (0 Bft)
11/11/2011 09:40 14,3 C 88 % 1014,5 hPa 0,0 mm 0,0 km/h (0 Bft) SE 135 0 min 0 W/m 12,3 C 14,3 C 0,0 km/h (0 Bft)
11/11/2011 09:45 14,6 C 88 % 1014,4 hPa 0,0 mm 0,0 km/h (0 Bft) E-SE 112 0 min 0 W/m 12,6 C 14,6 C 0,0 km/h (0 Bft)
11/11/2011 09:50 15,1 C 87 % 1014,3 hPa 0,0 mm 0,4 km/h (0 Bft) E-SE 112 0 min 0 W/m 13,0 C 15,1 C 3,6 km/h (1 Bft)
11/11/2011 09:55 15,4 C 86 % 1014,3 hPa 0,0 mm 4,7 km/h (1 Bft) S-SE 157 0 min 0 W/m 13,1 C 15,4 C 4,7 km/h (1 Bft)
11/11/2011 10:00 15,8 C 83 % 1014,4 hPa 0,0 mm 3,2 km/h (1 Bft) S 180 0 min 0 W/m 12,9 C 15,8 C 6,8 km/h (2 Bft)
11/11/2011 10:05 16,0 C 82 % 1014,3 hPa 0,0 mm 8,3 km/h (2 Bft) S-SE 157 0 min 0 W/m 12,9 C 16,0 C 8,6 km/h (2 Bft)
11/11/2011 10:10 16,0 C 81 % 1014,3 hPa 0,0 mm 6,1 km/h (2 Bft) E-SE 112 0 min 0 W/m 12,7 C 16,0 C 6,5 km/h (2 Bft)
11/11/2011 10:15 15,9 C 81 % 1014,4 hPa 0,0 mm 8,6 km/h (2 Bft) SE 135 0 min 0 W/m 12,6 C 15,9 C 12,6 km/h (3 Bft)
11/11/2011 10:20 15,9 C 80 % 1014,3 hPa 0,0 mm 7,6 km/h (2 Bft) SE 135 0 min 0 W/m 12,5 C 15,9 C 18,4 km/h (3 Bft)
11/11/2011 10:25 16,1 C 79 % 1014,4 hPa 0,0 mm 3,2 km/h (1 Bft) S 180 0 min 0 W/m 12,5 C 16,1 C 7,2 km/h (2 Bft)
11/11/2011 10:30 16,6 C 78 % 1014,5 hPa 0,0 mm 8,6 km/h (2 Bft) S-SO 202 0 min 0 W/m 12,7 C 16,6 C 9,4 km/h (2 Bft)
11/11/2011 10:35 17,1 C 77 % 1014,4 hPa 0,0 mm 0,4 km/h (0 Bft) S 180 0 min 0 W/m 13,0 C 17,1 C 3,2 km/h (1 Bft)
11/11/2011 10:40 17,2 C 77 % 1014,5 hPa 0,0 mm 0,7 km/h (0 Bft) S 180 0 min 0 W/m 13,1 C 17,2 C 4,3 km/h (1 Bft)
11/11/2011 10:45 17,4 C 75 % 1014,7 hPa 0,0 mm 6,5 km/h (2 Bft) SE 135 0 min 0 W/m 12,9 C 17,4 C 10,4 km/h (2 Bft)
11/11/2011 10:50 17,3 C 75 % 1014,8 hPa 0,0 mm 7,9 km/h (2 Bft) E-SE 112 0 min 0 W/m 12,8 C 17,3 C 8,6 km/h (2 Bft)
11/11/2011 10:55 17,1 C 73 % 1014,8 hPa 0,0 mm 9,4 km/h (2 Bft) S 180 0 min 0 W/m 12,2 C 17,1 C 13,0 km/h (3 Bft)
11/11/2011 11:00 16,9 C 75 % 1014,8 hPa 0,0 mm 12,2 km/h (2 Bft) SE 135 0 min 0 W/m 12,4 C 16,9 C 12,2 km/h (2 Bft)
11/11/2011 11:05 17,1 C 76 % 1014,8 hPa 0,0 mm 1,1 km/h (1 Bft) S 180 0 min 0 W/m 12,8 C 17,1 C 3,2 km/h (1 Bft)
11/11/2011 11:10 17,3 C 75 % 1014,9 hPa 0,0 mm 2,2 km/h (1 Bft) SE 135 0 min 0 W/m 12,8 C 17,3 C 6,8 km/h (2 Bft)
11/11/2011 11:15 17,3 C 74 % 1014,9 hPa 0,0 mm 4,3 km/h (1 Bft) E 90 0 min 0 W/m 12,6 C 17,3 C 6,8 km/h (2 Bft)
11/11/2011 11:20 17,2 C 73 % 1014,9 hPa 0,0 mm 7,9 km/h (2 Bft) S 180 0 min 0 W/m 12,3 C 17,2 C 12,6 km/h (3 Bft)
11/11/2011 11:25 17,1 C 74 % 1014,9 hPa 0,0 mm 4,7 km/h (1 Bft) SE 135 0 min 0 W/m 12,4 C 17,1 C 5,8 km/h (2 Bft)
11/11/2011 11:30 16,9 C 74 % 1014,9 hPa 0,0 mm 1,4 km/h (1 Bft) SE 135 0 min 0 W/m 12,2 C 16,9 C 1,4 km/h (1 Bft)
11/11/2011 11:35 16,9 C 74 % 1014,8 hPa 0,0 mm 9,4 km/h (2 Bft) S 180 0 min 0 W/m 12,2 C 16,9 C 11,2 km/h (2 Bft)
11/11/2011 11:40 17,1 C 74 % 1014,9 hPa 0,0 mm 6,8 km/h (2 Bft) S 180 0 min 0 W/m 12,4 C 17,1 C 9,7 km/h (2 Bft)
11/11/2011 11:45 17,2 C 74 % 1014,8 hPa 0,0 mm 4,7 km/h (1 Bft) SE 135 0 min 0 W/m 12,5 C 17,2 C 8,6 km/h (2 Bft)
11/11/2011 11:50 17,3 C 74 % 1014,8 hPa 0,0 mm 5,0 km/h (1 Bft) S-SE 157 0 min 0 W/m 12,6 C 17,3 C 9,0 km/h (2 Bft)
11/11/2011 11:55 17,4 C 74 % 1014,8 hPa 0,0 mm 2,5 km/h (1 Bft) S 180 0 min 0 W/m 12,7 C 17,4 C 4,3 km/h (1 Bft)
11/11/2011 12:00 17,7 C 73 % 1014,8 hPa 0,0 mm 6,5 km/h (2 Bft) S 180 0 min 0 W/m 12,8 C 17,7 C 9,7 km/h (2 Bft)
11/11/2011 12:05 17,9 C 72 % 1014,8 hPa 0,0 mm 2,9 km/h (1 Bft) S 180 0 min 0 W/m 12,8 C 17,9 C 9,7 km/h (2 Bft)
11/11/2011 12:10 18,0 C 72 % 1014,8 hPa 0,0 mm 3,2 km/h (1 Bft) S-SE 157 0 min 0 W/m 12,9 C 18,0 C 6,8 km/h (2 Bft)
11/11/2011 12:15 18,1 C 72 % 1014,8 hPa 0,0 mm 7,6 km/h (2 Bft) SE 135 0 min 0 W/m 13,0 C 18,1 C 9,4 km/h (2 Bft)
11/11/2011 12:20 18,1 C 72 % 1014,7 hPa 0,0 mm 0,7 km/h (0 Bft) S 180 0 min 0 W/m 13,0 C 18,1 C 4,3 km/h (1 Bft)
11/11/2011 12:25 18,1 C 72 % 1014,7 hPa 0,0 mm 0,7 km/h (0 Bft) S-SO 202 0 min 0 W/m 13,0 C 18,1 C 3,2 km/h (1 Bft)
11/11/2011 12:30 18,3 C 71 % 1014,6 hPa 0,0 mm 1,1 km/h (1 Bft) S-SO 202 0 min 0 W/m 12,9 C 18,3 C 3,6 km/h (1 Bft)
11/11/2011 12:35 18,4 C 70 % 1014,6 hPa 0,0 mm 7,6 km/h (2 Bft) S-SE 157 0 min 0 W/m 12,8 C 18,4 C 9,7 km/h (2 Bft)
11/11/2011 12:40 18,3 C 69 % 1014,6 hPa 0,0 mm 4,7 km/h (1 Bft) S-SO 202 0 min 0 W/m 12,5 C 18,3 C 7,2 km/h (2 Bft)
11/11/2011 12:45 18,3 C 69 % 1014,6 hPa 0,0 mm 8,3 km/h (2 Bft) S-SO 202 0 min 0 W/m 12,5 C 18,3 C 9,4 km/h (2 Bft)
11/11/2011 12:50 18,1 C 70 % 1014,6 hPa 0,0 mm 3,6 km/h (1 Bft) S 180 0 min 0 W/m 12,5 C 18,1 C 7,6 km/h (2 Bft)
11/11/2011 12:55 18,1 C 71 % 1014,4 hPa 0,0 mm 3,2 km/h (1 Bft) S-SO 202 0 min 0 W/m 12,8 C 18,1 C 4,3 km/h (1 Bft)
11/11/2011 13:00 18,0 C 71 % 1014,4 hPa 0,0 mm 4,3 km/h (1 Bft) S-SE 157 0 min 0 W/m 12,7 C 18,0 C 8,3 km/h (2 Bft)
11/11/2011 13:05 18,0 C 71 % 1014,4 hPa 0,0 mm 1,4 km/h (1 Bft) S-SO 202 0 min 0 W/m 12,7 C 18,0 C 2,9 km/h (1 Bft)
11/11/2011 13:10 17,9 C 72 % 1014,4 hPa 0,0 mm 4,0 km/h (1 Bft) S 180 0 min 0 W/m 12,8 C 17,9 C 6,8 km/h (2 Bft)
11/11/2011 13:15 17,9 C 72 % 1014,4 hPa 0,0 mm 5,8 km/h (2 Bft) S 180 0 min 0 W/m 12,8 C 17,9 C 5,8 km/h (2 Bft)
11/11/2011 13:20 17,8 C 71 % 1014,2 hPa 0,0 mm 1,8 km/h (1 Bft) S-SE 157 0 min 0 W/m 12,5 C 17,8 C 3,6 km/h (1 Bft)
11/11/2011 13:25 17,8 C 71 % 1014,1 hPa 0,0 mm 4,3 km/h (1 Bft) S-SE 157 0 min 0 W/m 12,5 C 17,8 C 4,3 km/h (1 Bft)
11/11/2011 13:30 17,8 C 72 % 1014,0 hPa 0,0 mm 1,4 km/h (1 Bft) S-SO 202 0 min 0 W/m 12,7 C 17,8 C 1,4 km/h (1 Bft)
11/11/2011 13:35 17,8 C 73 % 1014,0 hPa 0,0 mm 3,6 km/h (1 Bft) S-SE 157 0 min 0 W/m 12,9 C 17,8 C 4,3 km/h (1 Bft)
11/11/2011 13:40 17,8 C 72 % 1014,0 hPa 0,0 mm 6,8 km/h (2 Bft) S 180 0 min 0 W/m 12,7 C 17,8 C 6,8 km/h (2 Bft)
11/11/2011 13:45 17,9 C 71 % 1014,0 hPa 0,0 mm 6,8 km/h (2 Bft) S-SE 157 0 min 0 W/m 12,6 C 17,9 C 10,1 km/h (2 Bft)
11/11/2011 13:50 18,0 C 72 % 1014,0 hPa 0,0 mm 4,7 km/h (1 Bft) S-SE 157 0 min 0 W/m 12,9 C 18,0 C 10,8 km/h (2 Bft)
11/11/2011 13:55 18,3 C 72 % 1014,2 hPa 0,0 mm 5,8 km/h (2 Bft) SE 135 0 min 0 W/m 13,2 C 18,3 C 7,9 km/h (2 Bft)
11/11/2011 14:00 18,6 C 70 % 1014,2 hPa 0,0 mm 6,8 km/h (2 Bft) S-SE 157 0 min 0 W/m 13,0 C 18,6 C 11,9 km/h (2 Bft)
11/11/2011 14:05 18,9 C 69 % 1014,3 hPa 0,0 mm 7,2 km/h (2 Bft) S 180 0 min 0 W/m 13,1 C 18,9 C 7,2 km/h (2 Bft)
11/11/2011 14:10 18,9 C 69 % 1014,2 hPa 0,0 mm 5,8 km/h (2 Bft) S-SO 202 0 min 0 W/m 13,1 C 18,9 C 7,2 km/h (2 Bft)
11/11/2011 14:15 19,0 C 69 % 1014,3 hPa 0,0 mm 5,4 km/h (2 Bft) S 180 0 min 0 W/m 13,2 C 19,0 C 6,8 km/h (2 Bft)
11/11/2011 14:20 18,9 C 68 % 1014,2 hPa 0,0 mm 4,7 km/h (1 Bft) S-SO 202 0 min 0 W/m 12,9 C 18,9 C 10,8 km/h (2 Bft)
11/11/2011 14:25 18,9 C 68 % 1014,2 hPa 0,0 mm 4,3 km/h (1 Bft) S 180 0 min 0 W/m 12,9 C 18,9 C 9,0 km/h (2 Bft)
11/11/2011 14:30 18,9 C 68 % 1014,0 hPa 0,0 mm 5,8 km/h (2 Bft) S 180 0 min 0 W/m 12,9 C 18,9 C 9,4 km/h (2 Bft)
11/11/2011 14:35 19,2 C 68 % 1014,1 hPa 0,0 mm 5,0 km/h (1 Bft) S-SO 202 0 min 0 W/m 13,1 C 19,2 C 8,6 km/h (2 Bft)
11/11/2011 14:40 19,3 C 68 % 1014,1 hPa 0,0 mm 4,3 km/h (1 Bft) S-SO 202 0 min 0 W/m 13,2 C 19,3 C 6,8 km/h (2 Bft)
11/11/2011 14:45 19,5 C 68 % 1014,1 hPa 0,0 mm 3,2 km/h (1 Bft) S-SO 202 0 min 0 W/m 13,4 C 19,5 C 10,1 km/h (2 Bft)
11/11/2011 14:50 19,6 C 66 % 1014,2 hPa 0,0 mm 4,3 km/h (1 Bft) S-SO 202 0 min 0 W/m 13,1 C 19,6 C 7,6 km/h (2 Bft)
11/11/2011 14:55 19,7 C 67 % 1014,2 hPa 0,0 mm 7,2 km/h (2 Bft) S 180 0 min 0 W/m 13,4 C 19,7 C 11,9 km/h (2 Bft)
11/11/2011 15:00 19,6 C 66 % 1014,2 hPa 0,0 mm 5,8 km/h (2 Bft) S-SO 202 0 min 0 W/m 13,1 C 19,6 C 11,2 km/h (2 Bft)
11/11/2011 15:05 19,7 C 66 % 1014,3 hPa 0,0 mm 5,0 km/h (1 Bft) S-SE 157 0 min 0 W/m 13,2 C 19,7 C 5,0 km/h (1 Bft)
11/11/2011 15:10 19,6 C 66 % 1014,2 hPa 0,0 mm 7,2 km/h (2 Bft) S-SE 157 0 min 0 W/m 13,1 C 19,6 C 8,3 km/h (2 Bft)
11/11/2011 15:15 19,5 C 66 % 1014,2 hPa 0,0 mm 4,3 km/h (1 Bft) S 180 0 min 0 W/m 13,0 C 19,5 C 6,5 km/h (2 Bft)
11/11/2011 15:20 19,4 C 66 % 1014,2 hPa 0,0 mm 6,8 km/h (2 Bft) S 180 0 min 0 W/m 12,9 C 19,4 C 9,7 km/h (2 Bft)
11/11/2011 15:25 19,4 C 67 % 1014,1 hPa 0,0 mm 4,0 km/h (1 Bft) S 180 0 min 0 W/m 13,1 C 19,4 C 6,8 km/h (2 Bft)
11/11/2011 15:30 19,3 C 66 % 1014,1 hPa 0,0 mm 5,4 km/h (2 Bft) S 180 0 min 0 W/m 12,8 C 19,3 C 5,4 km/h (2 Bft)
11/11/2011 15:35 19,2 C 67 % 1014,1 hPa 0,0 mm 5,0 km/h (1 Bft) S-SO 202 0 min 0 W/m 12,9 C 19,2 C 8,6 km/h (2 Bft)
11/11/2011 15:40 19,1 C 67 % 1014,2 hPa 0,0 mm 4,7 km/h (1 Bft) S-SO 202 0 min 0 W/m 12,8 C 19,1 C 4,7 km/h (1 Bft)
11/11/2011 15:45 19,1 C 67 % 1014,3 hPa 0,0 mm 4,7 km/h (1 Bft) N 360 0 min 0 W/m 12,8 C 19,1 C 4,7 km/h (1 Bft)
11/11/2011 15:50 18,9 C 68 % 1014,4 hPa 0,0 mm 2,9 km/h (1 Bft) S 180 0 min 0 W/m 12,9 C 18,9 C 3,2 km/h (1 Bft)
11/11/2011 15:55 18,9 C 68 % 1014,3 hPa 0,0 mm 4,0 km/h (1 Bft) S-SO 202 0 min 0 W/m 12,9 C 18,9 C 4,3 km/h (1 Bft)
11/11/2011 16:00 18,9 C 68 % 1014,5 hPa 0,0 mm 0,0 km/h (0 Bft) S-SO 202 0 min 0 W/m 12,9 C 18,9 C 0,0 km/h (0 Bft)
11/11/2011 16:05 18,9 C 68 % 1014,6 hPa 0,0 mm 2,5 km/h (1 Bft) S-SE 157 0 min 0 W/m 12,9 C 18,9 C 7,6 km/h (2 Bft)
11/11/2011 16:10 18,8 C 68 % 1014,5 hPa 0,0 mm 6,5 km/h (2 Bft) S-SE 157 0 min 0 W/m 12,8 C 18,8 C 9,0 km/h (2 Bft)
11/11/2011 16:15 18,8 C 68 % 1014,5 hPa 0,0 mm 3,6 km/h (1 Bft) S-SE 157 0 min 0 W/m 12,8 C 18,8 C 3,6 km/h (1 Bft)
11/11/2011 16:20 18,8 C 68 % 1014,5 hPa 0,0 mm 2,2 km/h (1 Bft) S-SE 157 0 min 0 W/m 12,8 C 18,8 C 4,0 km/h (1 Bft)
11/11/2011 16:25 18,6 C 68 % 1014,6 hPa 0,0 mm 1,8 km/h (1 Bft) S 180 0 min 0 W/m 12,6 C 18,6 C 3,2 km/h (1 Bft)
11/11/2011 16:30 18,6 C 68 % 1014,5 hPa 0,0 mm 8,3 km/h (2 Bft) S-SE 157 0 min 0 W/m 12,6 C 18,6 C 11,2 km/h (2 Bft)
11/11/2011 16:35 18,4 C 68 % 1014,6 hPa 0,0 mm 0,4 km/h (0 Bft) SE 135 0 min 0 W/m 12,4 C 18,4 C 3,6 km/h (1 Bft)
11/11/2011 16:40 18,3 C 68 % 1014,7 hPa 0,0 mm 5,4 km/h (2 Bft) S 180 0 min 0 W/m 12,3 C 18,3 C 5,4 km/h (2 Bft)
11/11/2011 16:45 18,3 C 69 % 1014,7 hPa 0,0 mm 1,8 km/h (1 Bft) S 180 0 min 0 W/m 12,5 C 18,3 C 3,2 km/h (1 Bft)
11/11/2011 16:50 18,1 C 69 % 1014,7 hPa 0,0 mm 1,1 km/h (1 Bft) S 180 0 min 0 W/m 12,3 C 18,1 C 1,1 km/h (1 Bft)
11/11/2011 16:55 17,9 C 68 % 1014,8 hPa 0,0 mm 5,8 km/h (2 Bft) S-SE 157 0 min 0 W/m 11,9 C 17,9 C 11,2 km/h (2 Bft)
11/11/2011 17:00 17,7 C 69 % 1014,8 hPa 0,0 mm 4,7 km/h (1 Bft) S-SO 202 0 min 0 W/m 11,9 C 17,7 C 6,8 km/h (2 Bft)
11/11/2011 17:05 17,5 C 69 % 1014,9 hPa 0,0 mm 2,2 km/h (1 Bft) S-SO 202 0 min 0 W/m 11,7 C 17,5 C 4,3 km/h (1 Bft)
11/11/2011 17:10 17,3 C 70 % 1014,9 hPa 0,0 mm 1,4 km/h (1 Bft) S-SE 157 0 min 0 W/m 11,8 C 17,3 C 6,8 km/h (2 Bft)
11/11/2011 17:15 17,1 C 70 % 1014,9 hPa 0,0 mm 2,9 km/h (1 Bft) S 180 0 min 0 W/m 11,6 C 17,1 C 4,3 km/h (1 Bft)
11/11/2011 17:20 16,8 C 70 % 1015,0 hPa 0,0 mm 1,8 km/h (1 Bft) S 180 0 min 0 W/m 11,3 C 16,8 C 4,3 km/h (1 Bft)
11/11/2011 17:25 16,6 C 71 % 1015,0 hPa 0,0 mm 1,1 km/h (1 Bft) S 180 0 min 0 W/m 11,3 C 16,6 C 4,0 km/h (1 Bft)
11/11/2011 17:30 16,5 C 72 % 1015,0 hPa 0,0 mm 4,3 km/h (1 Bft) S-SO 202 0 min 0 W/m 11,4 C 16,5 C 10,4 km/h (2 Bft)
11/11/2011 17:35 16,3 C 72 % 1015,2 hPa 0,0 mm 2,9 km/h (1 Bft) S 180 0 min 0 W/m 11,2 C 16,3 C 7,2 km/h (2 Bft)
11/11/2011 17:40 16,1 C 73 % 1015,3 hPa 0,0 mm 3,6 km/h (1 Bft) S-SO 202 0 min 0 W/m 11,3 C 16,1 C 9,7 km/h (2 Bft)
11/11/2011 17:45 15,9 C 74 % 1015,3 hPa 0,0 mm 7,6 km/h (2 Bft) S-SO 202 0 min 0 W/m 11,3 C 15,9 C 12,2 km/h (2 Bft)
11/11/2011 17:50 15,8 C 74 % 1015,4 hPa 0,0 mm 5,0 km/h (1 Bft) S 180 0 min 0 W/m 11,2 C 15,8 C 8,3 km/h (2 Bft)
11/11/2011 17:55 15,7 C 75 % 1015,4 hPa 0,0 mm 1,8 km/h (1 Bft) S 180 0 min 0 W/m 11,3 C 15,7 C 3,2 km/h (1 Bft)
11/11/2011 18:00 15,5 C 75 % 1015,5 hPa 0,0 mm 1,4 km/h (1 Bft) S-SE 157 0 min 0 W/m 11,1 C 15,5 C 1,4 km/h (1 Bft)
11/11/2011 18:05 15,4 C 76 % 1015,5 hPa 0,0 mm 7,9 km/h (2 Bft) S-SE 157 0 min 0 W/m 11,2 C 15,4 C 11,5 km/h (2 Bft)
11/11/2011 18:10 15,3 C 76 % 1015,5 hPa 0,0 mm 0,4 km/h (0 Bft) S-SE 157 0 min 0 W/m 11,1 C 15,3 C 1,4 km/h (1 Bft)
11/11/2011 18:15 15,2 C 76 % 1015,6 hPa 0,0 mm 2,9 km/h (1 Bft) S-SE 157 0 min 0 W/m 11,0 C 15,2 C 4,3 km/h (1 Bft)
11/11/2011 18:20 15,1 C 77 % 1015,6 hPa 0,0 mm 4,0 km/h (1 Bft) S 180 0 min 0 W/m 11,1 C 15,1 C 4,0 km/h (1 Bft)
11/11/2011 18:25 15,1 C 77 % 1015,7 hPa 0,0 mm 2,9 km/h (1 Bft) S-SO 202 0 min 0 W/m 11,1 C 15,1 C 4,0 km/h (1 Bft)
11/11/2011 18:30 14,9 C 77 % 1015,8 hPa 0,0 mm 1,8 km/h (1 Bft) S 180 0 min 0 W/m 10,9 C 14,9 C 4,3 km/h (1 Bft)
11/11/2011 18:35 14,9 C 78 % 1015,9 hPa 0,0 mm 3,2 km/h (1 Bft) S 180 0 min 0 W/m 11,1 C 14,9 C 7,2 km/h (2 Bft)
11/11/2011 18:40 14,8 C 78 % 1015,9 hPa 0,0 mm 1,1 km/h (1 Bft) S-SE 157 0 min 0 W/m 11,0 C 14,8 C 1,1 km/h (1 Bft)
11/11/2011 18:45 14,8 C 78 % 1015,9 hPa 0,0 mm 5,8 km/h (2 Bft) S-SO 202 0 min 0 W/m 11,0 C 14,8 C 8,6 km/h (2 Bft)
11/11/2011 18:50 14,8 C 79 % 1016,0 hPa 0,0 mm 2,5 km/h (1 Bft) S-SE 157 0 min 0 W/m 11,2 C 14,8 C 2,5 km/h (1 Bft)
11/11/2011 18:55 14,8 C 79 % 1016,0 hPa 0,0 mm 5,4 km/h (2 Bft) S 180 0 min 0 W/m 11,2 C 14,8 C 13,3 km/h (3 Bft)
11/11/2011 19:00 14,8 C 79 % 1016,0 hPa 0,0 mm 6,8 km/h (2 Bft) S 180 0 min 0 W/m 11,2 C 14,8 C 10,1 km/h (2 Bft)
11/11/2011 19:05 14,8 C 79 % 1016,1 hPa 0,0 mm 2,5 km/h (1 Bft) S-SE 157 0 min 0 W/m 11,2 C 14,8 C 3,2 km/h (1 Bft)
11/11/2011 19:10 14,8 C 79 % 1016,1 hPa 0,0 mm 3,6 km/h (1 Bft) S-SE 157 0 min 0 W/m 11,2 C 14,8 C 8,6 km/h (2 Bft)
11/11/2011 19:15 14,9 C 79 % 1016,2 hPa 0,0 mm 2,9 km/h (1 Bft) S 180 0 min 0 W/m 11,3 C 14,9 C 9,0 km/h (2 Bft)
11/11/2011 19:20 14,9 C 79 % 1016,3 hPa 0,0 mm 1,8 km/h (1 Bft) S 180 0 min 0 W/m 11,3 C 14,9 C 4,0 km/h (1 Bft)
11/11/2011 19:25 14,9 C 79 % 1016,3 hPa 0,0 mm 2,9 km/h (1 Bft) S 180 0 min 0 W/m 11,3 C 14,9 C 4,3 km/h (1 Bft)
11/11/2011 19:30 14,9 C 79 % 1016,3 hPa 0,0 mm 4,3 km/h (1 Bft) S-SE 157 0 min 0 W/m 11,3 C 14,9 C 4,3 km/h (1 Bft)
11/11/2011 19:35 14,8 C 79 % 1016,4 hPa 0,0 mm 1,8 km/h (1 Bft) S 180 0 min 0 W/m 11,2 C 14,8 C 4,3 km/h (1 Bft)
11/11/2011 19:40 14,8 C 79 % 1016,4 hPa 0,0 mm 1,4 km/h (1 Bft) S-SE 157 0 min 0 W/m 11,2 C 14,8 C 3,2 km/h (1 Bft)
11/11/2011 19:45 14,7 C 79 % 1016,5 hPa 0,0 mm 0,4 km/h (0 Bft) S 180 0 min 0 W/m 11,1 C 14,7 C 3,6 km/h (1 Bft)
11/11/2011 19:50 14,6 C 79 % 1016,5 hPa 0,0 mm 3,2 km/h (1 Bft) S 180 0 min 0 W/m 11,0 C 14,6 C 4,0 km/h (1 Bft)
11/11/2011 19:55 14,6 C 80 % 1016,6 hPa 0,0 mm 1,1 km/h (1 Bft) S-SE 157 0 min 0 W/m 11,2 C 14,6 C 1,1 km/h (1 Bft)
11/11/2011 20:00 14,4 C 80 % 1016,6 hPa 0,0 mm 0,0 km/h (0 Bft) S-SE 157 0 min 0 W/m 11,0 C 14,4 C 0,0 km/h (0 Bft)
11/11/2011 20:05 14,3 C 80 % 1016,7 hPa 0,0 mm 0,4 km/h (0 Bft) S-SE 157 0 min 0 W/m 10,9 C 14,3 C 2,9 km/h (1 Bft)
11/11/2011 20:10 14,2 C 80 % 1016,7 hPa 0,0 mm 0,4 km/h (0 Bft) S-SE 157 0 min 0 W/m 10,8 C 14,2 C 0,4 km/h (0 Bft)
11/11/2011 20:15 14,2 C 81 % 1016,7 hPa 0,0 mm 0,0 km/h (0 Bft) S-SE 157 0 min 0 W/m 11,0 C 14,2 C 0,0 km/h (0 Bft)
11/11/2011 20:20 14,1 C 81 % 1016,8 hPa 0,0 mm 1,4 km/h (1 Bft) S-SE 157 0 min 0 W/m 10,9 C 14,1 C 4,3 km/h (1 Bft)
11/11/2011 20:25 14,1 C 81 % 1016,8 hPa 0,0 mm 2,9 km/h (1 Bft) SE 135 0 min 0 W/m 10,9 C 14,1 C 6,1 km/h (2 Bft)
11/11/2011 20:30 14,1 C 82 % 1016,9 hPa 0,0 mm 0,4 km/h (0 Bft) S-SE 157 0 min 0 W/m 11,1 C 14,1 C 0,4 km/h (0 Bft)
11/11/2011 20:35 14,0 C 82 % 1017,0 hPa 0,0 mm 1,1 km/h (1 Bft) S-SE 157 0 min 0 W/m 11,0 C 14,0 C 1,1 km/h (1 Bft)
11/11/2011 20:40 14,0 C 82 % 1017,0 hPa 0,0 mm 1,4 km/h (1 Bft) S-SE 157 0 min 0 W/m 11,0 C 14,0 C 4,3 km/h (1 Bft)
11/11/2011 20:45 14,0 C 82 % 1017,1 hPa 0,0 mm 2,5 km/h (1 Bft) SE 135 0 min 0 W/m 11,0 C 14,0 C 6,5 km/h (2 Bft)
11/11/2011 20:50 14,0 C 82 % 1017,1 hPa 0,0 mm 4,7 km/h (1 Bft) S-SE 157 0 min 0 W/m 11,0 C 14,0 C 8,6 km/h (2 Bft)
11/11/2011 20:55 14,0 C 82 % 1017,1 hPa 0,0 mm 2,2 km/h (1 Bft) S-SO 202 0 min 0 W/m 11,0 C 14,0 C 3,6 km/h (1 Bft)
11/11/2011 21:00 14,1 C 82 % 1017,2 hPa 0,0 mm 0,7 km/h (0 Bft) S-SO 202 0 min 0 W/m 11,1 C 14,1 C 3,2 km/h (1 Bft)
11/11/2011 21:05 14,1 C 82 % 1017,2 hPa 0,0 mm 2,9 km/h (1 Bft) S-SE 157 0 min 0 W/m 11,1 C 14,1 C 6,5 km/h (2 Bft)
11/11/2011 21:10 14,2 C 82 % 1017,3 hPa 0,0 mm 1,8 km/h (1 Bft) S 180 0 min 0 W/m 11,2 C 14,2 C 6,1 km/h (2 Bft)
11/11/2011 21:15 14,3 C 82 % 1017,4 hPa 0,0 mm 6,8 km/h (2 Bft) S-SE 157 0 min 0 W/m 11,3 C 14,3 C 12,6 km/h (3 Bft)
11/11/2011 21:20 14,4 C 81 % 1017,5 hPa 0,0 mm 7,6 km/h (2 Bft) S-SE 157 0 min 0 W/m 11,2 C 14,4 C 10,4 km/h (2 Bft)
11/11/2011 21:25 14,5 C 81 % 1017,5 hPa 0,0 mm 4,7 km/h (1 Bft) S 180 0 min 0 W/m 11,3 C 14,5 C 4,7 km/h (1 Bft)
11/11/2011 21:30 14,5 C 80 % 1017,6 hPa 0,0 mm 3,2 km/h (1 Bft) S 180 0 min 0 W/m 11,1 C 14,5 C 6,1 km/h (2 Bft)
11/11/2011 21:35 14,6 C 80 % 1017,7 hPa 0,0 mm 4,0 km/h (1 Bft) S-SO 202 0 min 0 W/m 11,2 C 14,6 C 10,1 km/h (2 Bft)
11/11/2011 21:40 14,6 C 80 % 1017,8 hPa 0,0 mm 8,3 km/h (2 Bft) S 180 0 min 0 W/m 11,2 C 14,6 C 11,5 km/h (2 Bft)
11/11/2011 21:45 14,6 C 80 % 1017,9 hPa 0,0 mm 3,6 km/h (1 Bft) SE 135 0 min 0 W/m 11,2 C 14,6 C 7,6 km/h (2 Bft)
11/11/2011 21:50 14,5 C 80 % 1017,9 hPa 0,0 mm 3,2 km/h (1 Bft) S-SE 157 0 min 0 W/m 11,1 C 14,5 C 4,3 km/h (1 Bft)
11/11/2011 21:55 14,4 C 80 % 1018,0 hPa 0,0 mm 5,0 km/h (1 Bft) S 180 0 min 0 W/m 11,0 C 14,4 C 8,6 km/h (2 Bft)
11/11/2011 22:00 14,4 C 80 % 1018,1 hPa 0,0 mm 5,0 km/h (1 Bft) S 180 0 min 0 W/m 11,0 C 14,4 C 8,3 km/h (2 Bft)
11/11/2011 22:05 14,3 C 80 % 1018,1 hPa 0,0 mm 4,3 km/h (1 Bft) S-SO 202 0 min 0 W/m 10,9 C 14,3 C 4,3 km/h (1 Bft)
11/11/2011 22:10 14,3 C 80 % 1018,1 hPa 0,0 mm 2,2 km/h (1 Bft) S 180 0 min 0 W/m 10,9 C 14,3 C 4,0 km/h (1 Bft)
11/11/2011 22:15 14,2 C 81 % 1018,1 hPa 0,0 mm 3,6 km/h (1 Bft) S-SE 157 0 min 0 W/m 11,0 C 14,2 C 3,6 km/h (1 Bft)
11/11/2011 22:20 14,2 C 81 % 1018,1 hPa 0,0 mm 3,2 km/h (1 Bft) S-SE 157 0 min 0 W/m 11,0 C 14,2 C 7,2 km/h (2 Bft)
11/11/2011 22:25 14,1 C 81 % 1018,2 hPa 0,0 mm 9,0 km/h (2 Bft) S-SE 157 0 min 0 W/m 10,9 C 14,1 C 15,1 km/h (3 Bft)
11/11/2011 22:30 14,2 C 81 % 1018,3 hPa 0,0 mm 7,9 km/h (2 Bft) S-SO 202 0 min 0 W/m 11,0 C 14,2 C 10,1 km/h (2 Bft)
11/11/2011 22:35 14,2 C 81 % 1018,4 hPa 0,0 mm 6,5 km/h (2 Bft) SE 135 0 min 0 W/m 11,0 C 14,2 C 7,9 km/h (2 Bft)
11/11/2011 22:40 14,2 C 80 % 1018,5 hPa 0,0 mm 6,1 km/h (2 Bft) S 180 0 min 0 W/m 10,8 C 14,2 C 7,2 km/h (2 Bft)
11/11/2011 22:45 14,2 C 80 % 1018,5 hPa 0,0 mm 12,2 km/h (2 Bft) S 180 0 min 0 W/m 10,8 C 14,2 C 16,2 km/h (3 Bft)
11/11/2011 22:50 14,2 C 80 % 1018,6 hPa 0,0 mm 5,0 km/h (1 Bft) S-SE 157 0 min 0 W/m 10,8 C 14,2 C 9,7 km/h (2 Bft)
11/11/2011 22:55 14,1 C 80 % 1018,6 hPa 0,0 mm 4,3 km/h (1 Bft) S 180 0 min 0 W/m 10,7 C 14,1 C 6,8 km/h (2 Bft)
11/11/2011 23:00 14,0 C 80 % 1018,6 hPa 0,0 mm 0,0 km/h (0 Bft) N 360 0 min 0 W/m 10,6 C 14,0 C 0,0 km/h (0 Bft)
11/11/2011 23:05 13,9 C 81 % 1018,7 hPa 0,0 mm 4,0 km/h (1 Bft) S-SE 157 0 min 0 W/m 10,7 C 13,9 C 6,5 km/h (2 Bft)
11/11/2011 23:10 13,9 C 81 % 1018,8 hPa 0,0 mm 4,3 km/h (1 Bft) S-SE 157 0 min 0 W/m 10,7 C 13,9 C 7,6 km/h (2 Bft)
_ Min-Heure 04:40 15:30 06:00 - 23:00 - - - - 04:40 04:05 23:00
Minimum _ 8,9 C 66 % 1013,2 hPa - 0,0 km/h (0 Bft) - - - - 8,1 C 8,8 C 0,0 km/h (0 Bft)
_ Max-Heure 15:05 08:45 23:10 07:45 22:45 - - 23:10 23:10 14:45 15:05 10:20
Maximum _ 19,7 C 96 % 1018,8 hPa 0,1 mm 12,2 km/h
S (2 Bft)
- - 0 min 0 W/m 13,4 C 19,7 C 18,4 km/h
SE (3 Bft)
Moyenne _ 13,6 C 83 % 1014,8 hPa #0,1 mm 3,0 km/h (1 Bft) E-SE - #0 min. 0 W/m 10,6 C 13,6 C 5,2 km/h (1 Bft)
Saint Bonnet de Bellac- Haute Vienne - France